Location: Dana
(41.8364°N, 106.7042°W)
Time: 14:42:42
(UTC+00:00)

SR - Pass Details

Date: 16 May 2026
Orbit: 567 x 853 km, 66.7° (Epoch: 7 June)

Event Time Altitude Azimuth Distance (km) Brightness Sun altitude
Rises 00:53:27 0° 306° (NW) 3,412 ? 14.4°
Reaches altitude 10° 00:58:47 10° 265° (W) 2,480 ? 13.4°
Maximum altitude 00:59:22 10° 259° (W) 2,468 ? 13.3°
Drops below altitude 10° 00:59:58 10° 253° (WSW) 2,477 ? 13.2°
Sets 01:05:16 0° 212° (SSW) 3,376 ? 12.2°
